TimeCDT,TemperatureF,Dew PointF,Humidity,Sea Level PressureIn,VisibilityMPH,Wind Direction,Wind SpeedMPH,Gust SpeedMPH,PrecipitationIn,Events,Conditions,WindDirDegrees,DateUTC
12:15 AM,46.4,30.2,53,30.00,10.0,North,12.7,17.3,N/A,,Clear,350,2012-10-29 05:15:00
12:35 AM,46.4,30.2,53,30.00,10.0,NW,4.6,-,N/A,,Clear,310,2012-10-29 05:35:00
12:55 AM,44.6,30.2,57,30.01,10.0,NNW,4.6,-,N/A,,Clear,340,2012-10-29 05:55:00
1:15 AM,42.8,30.2,61,30.01,10.0,Calm,Calm,-,N/A,,Clear,0,2012-10-29 06:15:00
2:15 AM,42.8,32.0,66,30.01,10.0,NW,4.6,-,N/A,,Clear,310,2012-10-29 07:15:00
3:15 AM,42.8,30.2,61,30.01,10.0,NW,4.6,-,N/A,,Clear,320,2012-10-29 08:15:00
3:35 AM,42.8,30.2,61,30.01,10.0,NW,8.1,-,N/A,,Clear,320,2012-10-29 08:35:00
3:55 AM,42.8,30.2,61,30.01,10.0,NW,5.8,-,N/A,,Clear,320,2012-10-29 08:55:00
4:55 AM,41.0,30.2,65,30.00,10.0,NW,9.2,-,N/A,,Clear,310,2012-10-29 09:55:00
5:55 AM,39.2,30.2,70,30.01,10.0,WNW,8.1,-,N/A,,Clear,300,2012-10-29 10:55:00
6:15 AM,39.2,30.2,70,30.01,10.0,NW,6.9,-,N/A,,Clear,320,2012-10-29 11:15:00
6:55 AM,39.2,30.2,70,30.02,10.0,NW,3.5,-,N/A,,Clear,320,2012-10-29 11:55:00
7:15 AM,39.2,30.2,70,30.03,10.0,NNW,3.5,-,N/A,,Clear,340,2012-10-29 12:15:00
8:15 AM,41.0,30.2,65,30.04,10.0,NW,8.1,-,N/A,,Clear,310,2012-10-29 13:15:00
8:35 AM,42.8,32.0,66,30.04,10.0,NNW,6.9,-,N/A,,Clear,340,2012-10-29 13:35:00
8:55 AM,44.6,32.0,61,30.05,10.0,NNW,10.4,-,N/A,,Clear,330,2012-10-29 13:55:00
9:35 AM,46.4,32.0,57,30.05,10.0,North,12.7,21.9,N/A,,Clear,360,2012-10-29 14:35:00
9:55 AM,46.4,30.2,53,30.04,10.0,NNW,10.4,23.0,N/A,,Clear,340,2012-10-29 14:55:00
10:35 AM,48.2,28.4,46,30.04,10.0,NW,13.8,19.6,N/A,,Clear,320,2012-10-29 15:35:00
10:55 AM,48.2,28.4,46,30.04,10.0,North,16.1,24.2,N/A,,Clear,350,2012-10-29 15:55:00
11:15 AM,50.0,26.6,40,30.03,10.0,NNW,18.4,24.2,N/A,,Clear,340,2012-10-29 16:15:00
11:55 AM,51.8,28.4,41,30.02,10.0,NW,10.4,19.6,N/A,,Clear,320,2012-10-29 16:55:00
12:35 PM,51.8,26.6,38,30.01,10.0,NW,18.4,23.0,N/A,,Clear,320,2012-10-29 17:35:00
12:55 PM,53.6,26.6,35,30.00,10.0,NW,13.8,23.0,N/A,,Clear,320,2012-10-29 17:55:00
1:15 PM,53.6,26.6,35,30.00,10.0,North,13.8,26.5,N/A,,Clear,350,2012-10-29 18:15:00
1:35 PM,53.6,26.6,35,29.98,10.0,NNW,12.7,23.0,N/A,,Clear,340,2012-10-29 18:35:00
1:55 PM,53.6,24.8,33,29.98,10.0,NNW,16.1,24.2,N/A,,Clear,340,2012-10-29 18:55:00
2:15 PM,55.4,24.8,31,29.96,10.0,NW,16.1,25.3,N/A,,Clear,320,2012-10-29 19:15:00
3:36 PM,55.4,24.8,31,29.95,10.0,NNW,18.4,26.5,N/A,,Clear,330,2012-10-29 20:36:00
3:55 PM,53.6,24.8,33,29.94,10.0,NW,16.1,24.2,N/A,,Clear,320,2012-10-29 20:55:00
4:15 PM,53.6,24.8,33,29.94,10.0,NNW,11.5,20.7,N/A,,Clear,330,2012-10-29 21:15:00
4:35 PM,53.6,23.0,30,29.94,10.0,NW,15.0,24.2,N/A,,Clear,320,2012-10-29 21:35:00
4:55 PM,53.6,23.0,30,29.94,10.0,NW,12.7,21.9,N/A,,Clear,320,2012-10-29 21:55:00
5:15 PM,51.8,23.0,33,29.93,10.0,NW,13.8,20.7,N/A,,Clear,310,2012-10-29 22:15:00
5:35 PM,51.8,23.0,33,29.93,10.0,NW,6.9,17.3,N/A,,Clear,310,2012-10-29 22:35:00
5:55 PM,50.0,23.0,35,29.93,10.0,NW,5.8,-,N/A,,Clear,310,2012-10-29 22:55:00
6:15 PM,48.2,21.2,34,29.93,10.0,WNW,8.1,-,N/A,,Clear,300,2012-10-29 23:15:00
6:35 PM,48.2,21.2,34,29.93,10.0,WNW,4.6,-,N/A,,Clear,300,2012-10-29 23:35:00
6:55 PM,46.4,21.2,37,29.93,10.0,WNW,6.9,-,N/A,,Clear,300,2012-10-29 23:55:00
7:15 PM,46.4,21.2,37,29.93,10.0,WNW,5.8,-,N/A,,Clear,290,2012-10-30 00:15:00
7:36 PM,46.4,21.2,37,29.93,10.0,WNW,4.6,-,N/A,,Clear,290,2012-10-30 00:36:00
7:55 PM,46.4,19.4,34,29.93,10.0,NW,5.8,-,N/A,,Clear,310,2012-10-30 00:55:00
8:15 PM,46.4,19.4,34,29.93,10.0,WNW,5.8,-,N/A,,Clear,300,2012-10-30 01:15:00
8:35 PM,46.4,19.4,34,29.93,10.0,NW,8.1,-,N/A,,Clear,310,2012-10-30 01:35:00
8:55 PM,46.4,19.4,34,29.93,10.0,NW,6.9,-,N/A,,Clear,310,2012-10-30 01:55:00
9:15 PM,46.4,19.4,34,29.93,10.0,WNW,11.5,-,N/A,,Clear,300,2012-10-30 02:15:00
9:35 PM,46.4,21.2,37,29.93,10.0,WNW,10.4,17.3,N/A,,Clear,300,2012-10-30 02:35:00
9:55 PM,46.4,21.2,37,29.93,10.0,WNW,10.4,17.3,N/A,,Clear,300,2012-10-30 02:55:00
10:15 PM,46.4,21.2,37,29.92,10.0,NW,10.4,20.7,N/A,,Clear,310,2012-10-30 03:15:00
10:35 PM,46.4,23.0,40,29.92,10.0,NW,9.2,17.3,N/A,,Clear,310,2012-10-30 03:35:00
10:55 PM,46.4,23.0,40,29.91,10.0,NW,9.2,16.1,N/A,,Clear,310,2012-10-30 03:55:00
11:15 PM,46.4,24.8,43,29.91,10.0,NW,10.4,17.3,N/A,,Clear,310,2012-10-30 04:15:00
11:35 PM,46.4,24.8,43,29.90,10.0,WNW,10.4,16.1,N/A,,Clear,300,2012-10-30 04:35:00
11:55 PM,44.6,24.8,46,29.90,10.0,WNW,5.8,18.4,N/A,,Clear,300,2012-10-30 04:55:00